Location: Carella
(45.8167°N, 9.2667°E)
Time: 01:51:18
(UTC+00:00)

Cosmos 1943 Rocket - Pass Details

Date: 30 March 2020
Orbit: 811 x 844 km, 71.0° (Epoch: 25 May)

Event Time Altitude Azimuth Distance (km) Brightness Sun altitude
Rises 19:54:47 0° 331° (NNW) 3,352 6.3 -21.4°
Reaches altitude 10° 19:57:13 10° 329° (NNW) 2,419 5.5 -21.8°
Maximum altitude 20:02:42 66° 248° (WSW) 897 2.4 -22.6°
Enters shadow 20:04:59 35° 178° (S) 1,300 2.9 -22.9°
